Content
SEND FEEDBACK

Daily
Averages
Monthly
Summary
United States of America

NEW YORK - CENTRAL PARK, NEW YORK


Home > North America > United States > New York
Elevation: 14 feet     Latitude: 40 47N     Longitude: 073 58W

WEATHER
 
SELECT A DAY
Number of Records: 151,321;   Date Range: 11/1/95 - 10/24/14
 
SHARE

PRINT THIS DATA

[ ← Previous Day ]
WEATHER ALMANAC - DECEMBER 31, 2012
[ Next Day → ]
[ °C ]   °F
Weather ElementAverageHighLow
Temperature33.6 °F37.9 °F (9:51 pm)28 °F (1:51 am)
Dewpoint18.9 °F23 °F (11:51 pm)12.9 °F (2:51 am)
Humidity55.1 %64 % (6:51 am)48 % (9:51 pm)
Barometer30.06 in30.18 in (1:51 am)29.89 in (9:51 pm)
Wind Speed7.7 mph11.5 mph (8:51 am)
Wind Gust24.2 mph (7:51 am)
Weather ElementAverage
Visibility10 mi
Wind DirectionSSE (170.4 °)

Weather ElementTotal
Precipitation---
Heating Degree Days32.1 (Base 65)
Averaged from 23 records on December 31, 2012
WEATHER CONDITIONS BREAKOUT
WIND DIRECTION BREAKOUT
WEATHER BY HOUR - DECEMBER 31, 2012
[ °C ]   °F
Local TimeTemperatureDewpointHumidityBarometerVisibilityWind DirectionWind SpeedGust SpeedPrecipitationEventsConditions
1:51 AM28.0 °F14.0 °F56 %30.18 in10.0 miVariable3.5 mphClear
2:51 AM28.0 °F12.9 °F53 %30.18 in10.0 miWest (270°)8.1 mphPartly Cloudy
3:51 AM28.9 °F14.0 °F54 %30.17 in10.0 miWSW (250°)5.8 mphOvercast
4:51 AM30.0 °F17.1 °F59 %30.17 in10.0 miWSW (240°)9.2 mphOvercast
5:51 AM30.0 °F18.0 °F61 %30.15 in10.0 miVariable6.9 mphMostly Cloudy
6:51 AM30.0 °F19.0 °F64 %30.17 in10.0 miWest (260°)6.9 mphClear
7:51 AM30.0 °F18.0 °F61 %30.16 in10.0 miWNW (290°)6.9 mph24.2 mphClear
8:51 AM30.0 °F19.0 °F64 %30.16 in10.0 miWNW (290°)11.5 mph19.6 mphClear
9:51 AM30.0 °F18.0 °F61 %30.16 in10.0 miWNW (290°)11.5 mph19.6 mphClear
10:51 AM32.0 °F19.0 °F59 %30.14 in10.0 miVariable3.5 mphClear
11:51 AM34.0 °F19.0 °F54 %30.11 in10.0 miWest (270°)6.9 mphClear
12:51 PM36.0 °F19.9 °F52 %30.06 in10.0 miWest (260°)10.4 mph19.6 mphClear
1:51 PM37.0 °F21.0 °F52 %30.03 in10.0 miWest (260°)9.2 mph17.3 mphClear
2:51 PM37.0 °F21.0 °F52 %30.02 in10.0 miWest (260°)6.9 mphClear
3:51 PM36.0 °F19.9 °F52 %29.98 in10.0 miNorthClear
4:51 PM36.0 °F21.0 °F55 %29.98 in10.0 miNorthOvercast
5:51 PM36.0 °F19.9 °F52 %29.98 in10.0 miVariable6.9 mph19.6 mphOvercast
6:51 PM37.0 °F19.9 °F50 %29.96 in10.0 miWSW (250°)9.2 mph21.9 mphOvercast
7:51 PM37.0 °F19.9 °F50 %29.94 in10.0 miSW (230°)9.2 mph18.4 mphOvercast
8:51 PM37.0 °F19.9 °F50 %29.90 in10.0 miWSW (250°)8.1 mphOvercast
9:51 PM37.9 °F19.9 °F48 %29.89 in10.0 miWSW (250°)6.9 mph16.1 mphOvercast
10:51 PM37.9 °F21.9 °F53 %29.90 in10.0 miNorthOvercast
11:51 PM37.9 °F23.0 °F55 %29.90 in10.0 miVariable5.8 mphOvercast
Hourly data recorded from KNYC, located miles away from New York - Central Park, New York







STORIES FROM OUR PARTNERS